| time (UTC) | temp F | wind direction | speed MPH | gust MPH | rain 1hr in | rain 24hr in | rain mn in | humidity % | barometer mb |
| 20260503203530 | 82 | 198 | 1.0 | 15.0 | 0.00 | 0.00 | 0.00 | 32 | 1017.0 |
| 20260503203034 | 81 | 215 | 8.0 | 16.0 | 0.00 | 0.00 | 0.00 | 30 | 1016.9 |
| 20260503202525 | 81 | 233 | 6.0 | 16.0 | 0.00 | 0.00 | 0.00 | 30 | 1017.3 |
| 20260503202029 | 82 | 214 | 1.0 | 16.0 | 0.00 | 0.00 | 0.00 | 31 | 1017.4 |
| 20260503201534 | 82 | 235 | 3.0 | 16.0 | 0.00 | 0.00 | 0.00 | 31 | 1017.5 |
| 20260503201045 | 82 | 118 | 1.0 | 15.0 | 0.00 | 0.00 | 0.00 | 30 | 1017.5 |
| 20260503200557 | 82 | 223 | 1.0 | 16.0 | 0.00 | 0.00 | 0.00 | 29 | 1017.5 |
| 20260503200025 | 82 | 253 | 5.0 | 16.0 | 0.00 | 0.00 | 0.00 | 32 | 1017.5 |
| 20260503195532 | 82 | 233 | 1.0 | 14.0 | 0.00 | 0.00 | 0.00 | 31 | 1017.6 |
| 20260503195053 | 82 | 233 | 5.0 | 14.0 | 0.00 | 0.00 | 0.00 | 31 | 1017.8 |
| 20260503194520 | 82 | 207 | 1.0 | 14.0 | 0.00 | 0.00 | 0.00 | 32 | 1017.8 |
| 20260503194054 | 82 | 190 | 2.0 | 14.0 | 0.00 | 0.00 | 0.00 | 34 | 1017.9 |
| 20260503193542 | 82 | 206 | 2.0 | 16.0 | 0.00 | 0.00 | 0.00 | 30 | 1018.0 |
| 20260503193027 | 82 | 221 | 10.0 | 16.0 | 0.00 | 0.00 | 0.00 | 32 | 1018.1 |
| 20260503192531 | 81 | 227 | 8.0 | 13.0 | 0.00 | 0.00 | 0.00 | 32 | 1018.2 |
| 20260503192034 | 82 | 210 | 5.0 | 12.0 | 0.00 | 0.00 | 0.00 | 32 | 1018.3 |
| 20260503191536 | 82 | 216 | 1.0 | 14.0 | 0.00 | 0.00 | 0.00 | 33 | 1018.4 |
| 20260503191040 | 82 | 262 | 10.0 | 14.0 | 0.00 | 0.00 | 0.00 | 35 | 1018.4 |
| 20260503190544 | 81 | 246 | 1.0 | 14.0 | 0.00 | 0.00 | 0.00 | 37 | 1018.5 |
| 20260503190043 | 81 | 254 | 0.0 | 15.0 | 0.00 | 0.00 | 0.00 | 37 | 1018.6 |
| 20260503185527 | 81 | 258 | 10.0 | 15.0 | 0.00 | 0.00 | 0.00 | 37 | 1018.7 |
| 20260503185033 | 81 | 239 | 7.0 | 15.0 | 0.00 | 0.00 | 0.00 | 38 | 1018.7 |
| 20260503184540 | 81 | 236 | 7.0 | 14.0 | 0.00 | 0.00 | 0.00 | 36 | 1018.8 |
| 20260503184025 | 81 | 226 | 7.0 | 14.0 | 0.00 | 0.00 | 0.00 | 37 | 1018.9 |
| 20260503183525 | 80 | 266 | 6.0 | 14.0 | 0.00 | 0.00 | 0.00 | 37 | 1019.0 |
| 20260503183031 | 80 | 242 | 10.0 | 14.0 | 0.00 | 0.00 | 0.00 | 36 | 1019.0 |
| 20260503182524 | 80 | 215 | 6.0 | 17.0 | 0.00 | 0.00 | 0.00 | 37 | 1019.1 |
| 20260503182028 | 80 | 215 | 10.0 | 17.0 | 0.00 | 0.00 | 0.00 | 39 | 1019.2 |
| 20260503181530 | 80 | 254 | 4.0 | 16.0 | 0.00 | 0.00 | 0.00 | 39 | 1019.4 |
| 20260503181044 | 80 | 251 | 10.0 | 16.0 | 0.00 | 0.00 | 0.00 | 40 | 1019.5 |
| 20260503180545 | 80 | 231 | 7.0 | 16.0 | 0.00 | 0.00 | 0.00 | 38 | 1019.6 |
| 20260503180030 | 80 | 239 | 2.0 | 16.0 | 0.00 | 0.00 | 0.00 | 39 | 1019.7 |
| 20260503175537 | 79 | 240 | 6.0 | 16.0 | 0.00 | 0.00 | 0.00 | 39 | 1019.7 |
| 20260503175027 | 79 | 229 | 10.0 | 16.0 | 0.00 | 0.00 | 0.00 | 38 | 1019.8 |
| 20260503174541 | 79 | 208 | 7.0 | 17.0 | 0.00 | 0.00 | 0.00 | 41 | 1019.9 |
| 20260503174044 | 79 | 249 | 9.0 | 17.0 | 0.00 | 0.00 | 0.00 | 41 | 1020.0 |
| 20260503173532 | 79 | 240 | 4.0 | 13.0 | 0.00 | 0.00 | 0.00 | 41 | 1020.0 |
| 20260503173030 | 79 | 227 | 6.0 | 17.0 | 0.00 | 0.00 | 0.00 | 42 | 1020.0 |
| 20260503172541 | 79 | 268 | 12.0 | 17.0 | 0.00 | 0.00 | 0.00 | 43 | 1020.1 |
| 20260503172025 | 78 | 261 | 11.0 | 16.0 | 0.00 | 0.00 | 0.00 | 41 | 1020.2 |
| 20260503171557 | 78 | 229 | 9.0 | 16.0 | 0.00 | 0.00 | 0.00 | 42 | 1020.3 |
| 20260503171027 | 78 | 244 | 7.0 | 16.0 | 0.00 | 0.00 | 0.00 | 43 | 1020.3 |
| 20260503170534 | 78 | 231 | 8.0 | 16.0 | 0.00 | 0.00 | 0.00 | 44 | 1020.4 |
| 20260503150536 | 71 | 226 | 8.0 | 16.0 | 0.00 | 0.00 | 0.00 | 51 | 1021.0 |
| 20260503131033 | 61 | 209 | 0.0 | 6.0 | 0.00 | 0.00 | 0.00 | 65 | 1020.7 |
| 20260503130543 | 61 | 241 | 0.0 | 6.0 | 0.00 | 0.00 | 0.00 | 66 | 1020.6 |
| 20260503110545 | 58 | 227 | 0.0 | 3.0 | 0.00 | 0.00 | 0.00 | 66 | 1019.7 |
| 20260503081532 | 60 | 222 | 1.0 | 5.0 | 0.00 | 0.00 | 0.00 | 62 | 1019.4 |
| 20260503081023 | 60 | 222 | 0.0 | 4.0 | 0.00 | 0.00 | 0.00 | 62 | 1019.5 |
| 20260503080533 | 61 | 153 | 0.0 | 0.0 | 0.00 | 0.00 | 0.00 | 62 | 1019.4 |
| 20260503072528 | 62 | 224 | 2.0 | 5.0 | 0.00 | 0.00 | 0.00 | 60 | 1019.7 |
| 20260503072038 | 62 | 223 | 0.0 | 4.0 | 0.00 | 0.00 | 0.00 | 60 | 1019.7 |
| 20260503071542 | 62 | 213 | 1.0 | 5.0 | 0.00 | 0.00 | 0.00 | 60 | 1019.7 |
| 20260503071027 | 62 | 192 | 0.0 | 5.0 | 0.00 | 0.00 | 0.00 | 60 | 1019.7 |
| 20260503070530 | 62 | 222 | 0.0 | 0.0 | 0.00 | 0.00 | 0.00 | 61 | 1019.8 |
| 20260503055046 | 63 | 217 | 0.0 | 5.0 | 0.00 | 0.00 | 0.00 | 60 | 1019.6 |
| 20260503054554 | 63 | 222 | 0.0 | 2.0 | 0.00 | 0.00 | 0.00 | 60 | 1019.5 |
| 20260503054038 | 63 | 218 | 0.0 | 0.0 | 0.00 | 0.00 | 0.00 | 60 | 1019.6 |
| 20260503053524 | 63 | 216 | 0.0 | 2.0 | 0.00 | 0.00 | 0.00 | 59 | 1019.6 |
| 20260503053034 | 64 | 218 | 0.0 | 2.0 | 0.00 | 0.00 | 0.00 | 58 | 1019.5 |
| 20260503052553 | 64 | 218 | 0.0 | 1.0 | 0.00 | 0.00 | 0.00 | 57 | 1019.5 |
| 20260503052023 | 65 | 216 | 0.0 | 1.0 | 0.00 | 0.00 | 0.00 | 56 | 1019.4 |
| 20260503051529 | 65 | 216 | 0.0 | 3.0 | 0.00 | 0.00 | 0.00 | 55 | 1019.5 |
| 20260503051033 | 65 | 215 | 0.0 | 5.0 | 0.00 | 0.00 | 0.00 | 55 | 1019.4 |
| 20260503050537 | 65 | 214 | 0.0 | 5.0 | 0.00 | 0.00 | 0.00 | 55 | 1019.4 |
| 20260503050026 | 65 | 214 | 0.0 | 1.0 | 0.00 | 0.00 | 0.00 | 54 | 1019.3 |
| 20260503045527 | 66 | 217 | 0.0 | 0.0 | 0.00 | 0.00 | 0.00 | 53 | 1019.3 |
| 20260503045055 | 66 | 214 | 0.0 | 3.0 | 0.00 | 0.00 | 0.00 | 53 | 1019.3 |
| 20260503044537 | 66 | 213 | 0.0 | 3.0 | 0.00 | 0.00 | 0.00 | 53 | 1019.3 |
| 20260503044025 | 66 | 214 | 0.0 | 2.0 | 0.00 | 0.00 | 0.00 | 53 | 1019.3 |
| 20260503043533 | 66 | 214 | 0.0 | 2.0 | 0.00 | 0.00 | 0.00 | 53 | 1019.4 |
| 20260503043039 | 66 | 215 | 0.0 | 0.0 | 0.00 | 0.00 | 0.00 | 53 | 1019.4 |
| 20260503042524 | 67 | 214 | 0.0 | 4.0 | 0.00 | 0.00 | 0.00 | 53 | 1019.4 |
| 20260503042050 | 67 | 214 | 0.0 | 4.0 | 0.00 | 0.00 | 0.00 | 53 | 1019.4 |
| 20260503041533 | 67 | 216 | 0.0 | 3.0 | 0.00 | 0.00 | 0.00 | 52 | 1019.4 |
| 20260503041022 | 67 | 214 | 0.0 | 3.0 | 0.00 | 0.00 | 0.00 | 51 | 1019.4 |
| 20260503040530 | 67 | 216 | 0.0 | 4.0 | 0.00 | 0.00 | 0.00 | 50 | 1019.4 |
| 20260503040038 | 68 | 218 | 1.0 | 4.0 | 0.00 | 0.00 | 0.00 | 50 | 1019.5 |
| 20260503035540 | 68 | 217 | 0.0 | 4.0 | 0.00 | 0.00 | 0.00 | 50 | 1019.3 |
| 20260503035026 | 68 | 216 | 1.0 | 4.0 | 0.00 | 0.00 | 0.00 | 50 | 1019.4 |
| 20260503034530 | 68 | 216 | 0.0 | 4.0 | 0.00 | 0.00 | 0.00 | 49 | 1019.3 |
| 20260503034030 | 68 | 216 | 1.0 | 5.0 | 0.00 | 0.00 | 0.00 | 49 | 1019.4 |
| 20260503033539 | 69 | 217 | 0.0 | 5.0 | 0.00 | 0.00 | 0.00 | 48 | 1019.3 |
| 20260503033022 | 69 | 214 | 0.0 | 6.0 | 0.00 | 0.00 | 0.00 | 47 | 1019.3 |
| 20260503032532 | 69 | 217 | 2.0 | 6.0 | 0.00 | 0.00 | 0.00 | 47 | 1019.2 |
| 20260503032021 | 69 | 236 | 0.0 | 3.0 | 0.00 | 0.00 | 0.00 | 47 | 1019.2 |
| 20260503031535 | 69 | 241 | 0.0 | 0.0 | 0.00 | 0.00 | 0.00 | 47 | 1019.2 |
| 20260503031037 | 69 | 244 | 0.0 | 0.0 | 0.00 | 0.00 | 0.00 | 47 | 1019.1 |
| 20260503030528 | 70 | 245 | 0.0 | 2.0 | 0.00 | 0.00 | 0.00 | 46 | 1019.1 |
| 20260503030034 | 70 | 248 | 0.0 | 2.0 | 0.00 | 0.00 | 0.00 | 46 | 1019.0 |
| 20260503025542 | 70 | 248 | 0.0 | 0.0 | 0.00 | 0.00 | 0.00 | 46 | 1019.0 |
| 20260503025048 | 70 | 249 | 0.0 | 0.0 | 0.00 | 0.00 | 0.00 | 46 | 1019.0 |
| 20260503024559 | 70 | 249 | 0.0 | 0.0 | 0.00 | 0.00 | 0.00 | 46 | 1019.0 |
| 20260503024041 | 70 | 249 | 0.0 | 0.0 | 0.00 | 0.00 | 0.00 | 46 | 1018.9 |
| 20260503023523 | 70 | 249 | 0.0 | 0.0 | 0.00 | 0.00 | 0.00 | 46 | 1018.9 |
| 20260503023030 | 70 | 249 | 0.0 | 0.0 | 0.00 | 0.00 | 0.00 | 47 | 1018.7 |
| 20260503022536 | 70 | 249 | 0.0 | 0.0 | 0.00 | 0.00 | 0.00 | 46 | 1018.6 |
| 20260503022043 | 70 | 249 | 0.0 | 0.0 | 0.00 | 0.00 | 0.00 | 47 | 1018.7 |
| 20260503021527 | 70 | 249 | 0.0 | 0.0 | 0.00 | 0.00 | 0.00 | 47 | 1018.6 |
| 20260503021053 | 70 | 249 | 0.0 | 0.0 | 0.00 | 0.00 | 0.00 | 47 | 1018.6 |
| 20260503020535 | 70 | 249 | 0.0 | 0.0 | 0.00 | 0.00 | 0.00 | 46 | 1018.7 |
| 20260503020042 | 70 | 249 | 0.0 | 0.0 | 0.00 | 0.00 | 0.00 | 46 | 1018.6 |
| 20260503015553 | 70 | 249 | 0.0 | 3.0 | 0.00 | 0.00 | 0.00 | 46 | 1018.6 |
| 20260503015040 | 70 | 250 | 0.0 | 3.0 | 0.00 | 0.00 | 0.00 | 46 | 1018.6 |
| 20260503014527 | 71 | 249 | 0.0 | 0.0 | 0.00 | 0.00 | 0.00 | 47 | 1018.6 |
| 20260503014037 | 71 | 250 | 0.0 | 1.0 | 0.00 | 0.00 | 0.00 | 46 | 1018.5 |
| 20260503013610 | 71 | 250 | 0.0 | 1.0 | 0.00 | 0.00 | 0.00 | 46 | 1018.5 |
| 20260503013031 | 71 | 250 | 0.0 | 1.0 | 0.00 | 0.00 | 0.00 | 45 | 1018.5 |
| 20260503012523 | 71 | 250 | 0.0 | 1.0 | 0.00 | 0.00 | 0.00 | 45 | 1018.5 |
| 20260503012053 | 72 | 250 | 0.0 | 0.0 | 0.00 | 0.00 | 0.00 | 45 | 1018.5 |
| 20260503011539 | 72 | 250 | 0.0 | 1.0 | 0.00 | 0.00 | 0.00 | 44 | 1018.5 |
| 20260503011052 | 72 | 250 | 0.0 | 4.0 | 0.00 | 0.00 | 0.00 | 44 | 1018.5 |
| 20260503010534 | 72 | 251 | 0.0 | 4.0 | 0.00 | 0.00 | 0.00 | 44 | 1018.4 |
| 20260503010026 | 73 | 251 | 0.0 | 0.0 | 0.00 | 0.00 | 0.00 | 43 | 1018.3 |
| 20260503005527 | 73 | 251 | 0.0 | 2.0 | 0.00 | 0.00 | 0.00 | 42 | 1018.2 |
| 20260503005035 | 73 | 251 | 0.0 | 3.0 | 0.00 | 0.00 | 0.00 | 42 | 1018.2 |
| 20260503004542 | 73 | 252 | 0.0 | 3.0 | 0.00 | 0.00 | 0.00 | 42 | 1018.2 |
| 20260503004027 | 74 | 251 | 0.0 | 1.0 | 0.00 | 0.00 | 0.00 | 41 | 1018.2 |
| 20260503003533 | 74 | 253 | 0.0 | 4.0 | 0.00 | 0.00 | 0.00 | 41 | 1018.1 |
| 20260503003024 | 74 | 254 | 0.0 | 4.0 | 0.00 | 0.00 | 0.00 | 41 | 1018.2 |
| 20260503002528 | 75 | 254 | 0.0 | 5.0 | 0.00 | 0.00 | 0.00 | 40 | 1018.2 |
| 20260503002035 | 75 | 255 | 0.0 | 5.0 | 0.00 | 0.00 | 0.00 | 40 | 1018.2 |
| 20260503001537 | 75 | 256 | 0.0 | 7.0 | 0.00 | 0.00 | 0.00 | 41 | 1018.2 |
| 20260503001024 | 75 | 257 | 0.0 | 7.0 | 0.00 | 0.00 | 0.00 | 39 | 1018.2 |
| 20260503000531 | 75 | 276 | 0.0 | 6.0 | 0.00 | 0.00 | 0.00 | 38 | 1018.2 |
| 20260503000034 | 76 | 283 | 0.0 | 6.0 | 0.00 | 0.00 | 0.00 | 37 | 1018.2 |
| 20260502235524 | 76 | 271 | 0.0 | 1.0 | 0.00 | 0.00 | 0.00 | 38 | 1018.3 |
| 20260502235101 | 76 | 272 | 0.0 | 6.0 | 0.00 | 0.00 | 0.00 | 38 | 1018.3 |
| 20260502234544 | 76 | 270 | 0.0 | 10.0 | 0.00 | 0.00 | 0.00 | 38 | 1018.3 |
| 20260502234026 | 76 | 289 | 7.0 | 10.0 | 0.00 | 0.00 | 0.00 | 37 | 1018.4 |
| 20260502233533 | 76 | 290 | 0.0 | 5.0 | 0.00 | 0.00 | 0.00 | 36 | 1018.4 |
| 20260502233041 | 76 | 290 | 1.0 | 5.0 | 0.00 | 0.00 | 0.00 | 37 | 1018.4 |
| 20260502232527 | 75 | 289 | 0.0 | 2.0 | 0.00 | 0.00 | 0.00 | 37 | 1018.4 |
| 20260502232036 | 76 | 289 | 0.0 | 3.0 | 0.00 | 0.00 | 0.00 | 37 | 1018.3 |
| 20260502231528 | 77 | 288 | 1.0 | 3.0 | 0.00 | 0.00 | 0.00 | 35 | 1018.5 |
| 20260502231032 | 77 | 288 | 0.0 | 4.0 | 0.00 | 0.00 | 0.00 | 37 | 1018.5 |
| 20260502230553 | 76 | 287 | 0.0 | 7.0 | 0.00 | 0.00 | 0.00 | 37 | 1018.6 |
| 20260502230021 | 76 | 287 | 3.0 | 10.0 | 0.00 | 0.00 | 0.00 | 36 | 1018.6 |
| 20260502225533 | 77 | 254 | 4.0 | 10.0 | 0.00 | 0.00 | 0.00 | 36 | 1018.6 |
| 20260502225019 | 77 | 299 | 2.0 | 8.0 | 0.00 | 0.00 | 0.00 | 37 | 1018.7 |
| 20260502224554 | 77 | 272 | 0.0 | 6.0 | 0.00 | 0.00 | 0.00 | 36 | 1018.6 |
| 20260502224019 | 77 | 275 | 0.0 | 10.0 | 0.00 | 0.00 | 0.00 | 37 | 1018.6 |
| 20260502223530 | 77 | 260 | 0.0 | 10.0 | 0.00 | 0.00 | 0.00 | 37 | 1018.7 |
| 20260502223030 | 77 | 249 | 0.0 | 12.0 | 0.00 | 0.00 | 0.00 | 38 | 1018.6 |
| 20260502222535 | 77 | 262 | 7.0 | 12.0 | 0.00 | 0.00 | 0.00 | 37 | 1018.7 |
| 20260502222037 | 77 | 294 | 6.0 | 12.0 | 0.00 | 0.00 | 0.00 | 38 | 1018.7 |
| 20260502221525 | 77 | 274 | 0.0 | 3.0 | 0.00 | 0.00 | 0.00 | 38 | 1018.7 |
| 20260502221058 | 77 | 288 | 0.0 | 4.0 | 0.00 | 0.00 | 0.00 | 36 | 1018.8 |
| 20260502220526 | 77 | 328 | 0.0 | 4.0 | 0.00 | 0.00 | 0.00 | 36 | 1018.8 |
| 20260502220029 | 77 | 316 | 0.0 | 9.0 | 0.00 | 0.00 | 0.00 | 36 | 1018.9 |
| 20260502215533 | 76 | 318 | 0.0 | 10.0 | 0.00 | 0.00 | 0.00 | 36 | 1018.9 |
| 20260502215039 | 77 | 300 | 1.0 | 10.0 | 0.00 | 0.00 | 0.00 | 37 | 1018.9 |
| 20260502214524 | 76 | 289 | 0.0 | 8.0 | 0.00 | 0.00 | 0.00 | 38 | 1019.0 |
| 20260502214035 | 76 | 245 | 0.0 | 8.0 | 0.00 | 0.00 | 0.00 | 37 | 1019.0 |
| 20260502213547 | 76 | 234 | 0.0 | 7.0 | 0.00 | 0.00 | 0.00 | 38 | 1019.2 |
| 20260502213032 | 77 | 299 | 1.0 | 6.0 | 0.00 | 0.00 | 0.00 | 38 | 1019.2 |
| 20260502212521 | 77 | 264 | 0.0 | 7.0 | 0.00 | 0.00 | 0.00 | 38 | 1019.3 |
| 20260502212030 | 77 | 293 | 0.0 | 11.0 | 0.00 | 0.00 | 0.00 | 37 | 1019.3 |
| 20260502211519 | 77 | 306 | 3.0 | 6.0 | 0.00 | 0.00 | 0.00 | 40 | 1019.4 |
| 20260502211056 | 77 | 347 | 0.0 | 9.0 | 0.00 | 0.00 | 0.00 | 37 | 1019.5 |
| 20260502210546 | 76 | 306 | 0.0 | 9.0 | 0.00 | 0.00 | 0.00 | 37 | 1019.6 |
| 20260502210054 | 76 | 312 | 2.0 | 10.0 | 0.00 | 0.00 | 0.00 | 38 | 1019.6 |
| 20260502205553 | 75 | 313 | 4.0 | 10.0 | 0.00 | 0.00 | 0.00 | 39 | 1019.7 |
| 20260502205041 | 76 | 291 | 2.0 | 6.0 | 0.00 | 0.00 | 0.00 | 38 | 1019.7 |
| 20260502204547 | 76 | 303 | 0.0 | 7.0 | 0.00 | 0.00 | 0.00 | 35 | 1019.7 |
| 20260502204049 | 77 | 347 | 0.0 | 7.0 | 0.00 | 0.00 | 0.00 | 36 | 1019.8 |